Вернуться в каталог

STARLINK-37311

АктивенСвязьVLEO
NORAD 69161·PAYLOAD·🇺🇸 United States

Запущен May 21, 2026 с Cape Canaveral Space Force Station

Loading…

Ближайшие Пролёты (ближайшие 24 часа)

TLE

СвежийSource: CelesTrak SupGP

Эпоха: Sep 14, 2026, 23:37 UTC

1 69161C 26111P   26257.98451389  .00050295  00000+0  14859-2 0  2579
2 69161  53.1580  91.5465 0001225  77.5096 199.8974 15.34366214    14

Отслеживайте STARLINK-37311 в реальном времени с AllMySat

Download on the App Store